Faith, SD

11:56 PM MST on February 22, 2018 (GMT -0700)
Faith

Weather History for KD07 - October, 2013

Change the Weather History Date:

Tuesday, October 8, 2013

  Actual Average Record
Temperature  
Mean Temperature 49 °F 50 °F  
Max Temperature 58 °F 62 °F 84 °F (2010)
Min Temperature 40 °F 38 °F 18 °F (2000)
Degree Days  
Heating Degree Days 16 15  
Month to date heating degree days 149 112  
Since 1 July heating degree days 244 344  
Cooling Degree Days 0 0  
Month to date cooling degree days 0 0  
Year to date cooling degree days 720 634  
Moisture  
Dew Point 38 °F    
Average Humidity 70    
Maximum Humidity 92    
Minimum Humidity 47    
Precipitation  
Precipitation 0.00 in 0.03 in 0.09 in (2010)
Month to date precipitation 0.72 0.27  
Year to date precipitation 14.19 15.45  
Sea Level Pressure  
Sea Level Pressure 29.74 in    
Wind  
Wind Speed 10 mph (NW)    
Max Wind Speed 13 mph    
Max Gust Speed 14 mph    
T = Trace of Precipitation, MM = Missing Value Source: NWS Daily Summary

Daily Weather History Graph

Daily Weather History Graph

Search for Another Location

Airport or City:

Trip Planner

Search our weather history database for the weather conditions in past years. The results will help you decide how hot, cold, wet, or windy it might be!

Date:

Astronomy

Oct. 08, 2013 Rise Set
Actual Time 6:55 AM MDT 6:15 PM MDT
Civil Twilight 6:25 AM MDT 6:44 PM MDT
Nautical Twilight 5:51 AM MDT 7:18 PM MDT
Astronomical Twilight 5:17 AM MDT 7:52 PM MDT
Moon 11:01 AM MDT (10/8) 8:43 PM MDT (10/8)
Length of Visible Light 12h 18m
Length of Day
11h 19m
Waxing Crescent, 16% of the Moon is Illuminated
Oct 8
Waxing Crescent
Oct 11
First Quarter
Oct 18
Full
Oct 26
Last Quarter
Nov 3
New

Hourly Weather History & Observations

Time (MDT) Temp. Windchill Dew Point Humidity Pressure Visibility Wind Dir Wind Speed Gust Speed Precip Events Conditions
12:56 AM 43.0 °F 41.3 °F 37.0 °F 80% 29.68 in - SSW 3.5 mph - N/A   Unknown
1:56 AM 44.1 °F 41.5 °F 37.9 °F 79% 29.66 in - WSW 4.6 mph - N/A   Unknown
2:56 AM 39.9 °F 35.8 °F 37.0 °F 89% 29.65 in - WSW 5.8 mph - N/A   Unknown
3:56 AM 45.0 °F 39.7 °F 36.0 °F 71% 29.65 in - SW 10.4 mph - N/A   Unknown
4:56 AM 46.9 °F - 36.0 °F 66% 29.66 in - West 6.9 mph - N/A   Unknown
5:56 AM 46.0 °F 41.0 °F 37.0 °F 71% 29.67 in - WNW 10.4 mph - N/A   Unknown
6:56 AM 42.1 °F 36.6 °F 36.0 °F 79% 29.70 in - WSW 9.2 mph - N/A   Unknown
7:56 AM 43.0 °F 38.2 °F 36.0 °F 76% 29.69 in - WNW 8.1 mph - N/A   Unknown
8:56 AM 45.0 °F 40.6 °F 37.0 °F 74% 29.72 in - West 8.1 mph - N/A   Unknown
9:56 AM 51.1 °F - 39.9 °F 66% 29.72 in - WNW 12.7 mph - N/A   Unknown
10:56 AM 51.1 °F - 39.9 °F 66% 29.73 in - WNW 13.8 mph - N/A   Unknown
11:56 AM 53.1 °F - 39.0 °F 59% 29.73 in - NNW 13.8 mph - N/A   Unknown
12:56 PM 55.0 °F - 37.9 °F 53% 29.74 in - North 12.7 mph - N/A   Unknown
1:56 PM 57.0 °F - 37.9 °F 49% 29.73 in - NNW 13.8 mph - N/A   Unknown
2:56 PM 57.9 °F - 37.9 °F 47% 29.73 in - North 15.0 mph - N/A   Unknown
3:56 PM 57.0 °F - 37.9 °F 49% 29.73 in - North 12.7 mph - N/A   Unknown
4:56 PM 55.9 °F - 39.0 °F 53% 29.75 in - North 9.2 mph - N/A   Unknown
5:56 PM 50.0 °F - 39.9 °F 68% 29.79 in - NW 8.1 mph - N/A   Unknown
6:56 PM 48.9 °F - 37.9 °F 66% 29.80 in - North 5.8 mph - N/A   Unknown
7:56 PM 48.0 °F - 37.9 °F 68% 29.81 in - North 5.8 mph - N/A   Unknown
9:56 PM 43.0 °F 37.7 °F 37.0 °F 80% 29.87 in - NW 9.2 mph - N/A   Unknown
10:56 PM 43.0 °F 37.2 °F 36.0 °F 76% 29.90 in - NW 10.4 mph - N/A   Unknown
11:56 PM 42.1 °F 36.6 °F 35.1 °F 76% 29.91 in - NNW 9.2 mph - N/A   Unknown